Location: Catstown
(52.4386°N, 7.2633°W)
Time: 11:14:17
(UTC+00:00)

Meteor 2-5 Rocket - Visible Passes

Search period start: 16 January 2021 00:00
Search period end: 26 January 2021 00:00
Orbit: 832 x 913 km, 81.2° (Epoch: 15 January)

Date Brightness Start Highest point End Pass type
(mag) Time Alt. Az. Time Alt. Az. Time Alt. Az.
16 Jan 5.3 04:18:26 31° E 04:18:26 31° E 04:22:27 10° SE visible
16 Jan 3.8 06:00:59 48° W 06:01:00 48° W 06:06:22 10° SSW visible
16 Jan 4.6 17:32:25 10° SE 17:37:01 27° E 17:41:36 10° NNE visible
16 Jan 4.3 19:14:36 10° SSW 19:20:05 56° WNW 19:25:34 10° N visible
16 Jan 6.5 21:02:35 10° WNW 21:04:51 12° NW 21:07:07 10° NNW visible
17 Jan 5.6 04:14:15 25° ESE 04:14:15 25° ESE 04:17:01 10° SE visible
17 Jan 4.2 05:56:49 39° SW 05:56:49 39° SW 06:00:50 10° SSW visible
17 Jan 4.6 17:26:50 10° SE 17:31:30 28° E 17:36:08 10° NNE visible
17 Jan 4.4 19:09:09 10° SSW 19:14:36 54° WNW 19:20:03 10° N visible
17 Jan 6.5 20:57:20 10° WNW 20:59:24 12° NW 21:01:28 10° NNW visible
18 Jan 5.9 04:10:08 17° ESE 04:10:08 17° ESE 04:11:35 10° SE visible
18 Jan 4.9 05:52:42 26° SSW 05:52:42 26° SSW 05:55:17 10° SSW visible
18 Jan 4.5 17:21:15 10° SSE 17:25:58 29° E 17:30:40 10° NNE visible
18 Jan 4.5 19:03:41 10° SSW 19:09:07 52° WNW 19:14:32 10° N visible
18 Jan 6.5 20:52:06 10° WNW 20:53:57 12° NW 20:55:48 10° NNW visible
19 Jan 6.3 04:06:02 11° SE 04:06:02 11° SE 04:06:09 10° SE visible
19 Jan 5.5 05:48:36 16° SSW 05:48:36 16° SSW 05:49:44 10° SSW visible
19 Jan 4.5 18:58:13 10° SW 19:03:37 50° WNW 19:09:00 10° N visible
19 Jan 6.5 20:46:53 10° WNW 20:48:30 11° NW 20:50:07 10° NNW visible
20 Jan 4.6 18:52:45 10° SW 18:58:08 48° WNW 19:03:30 10° N visible
20 Jan 6.6 20:41:43 10° WNW 20:43:03 11° NW 20:44:22 10° NNW visible
21 Jan 4.7 18:47:17 10° SW 18:52:38 46° WNW 18:57:58 10° N visible
21 Jan 6.6 20:36:40 10° NW 20:37:36 10° NW 20:38:32 10° NW visible
22 Jan 4.8 18:41:50 10° SW 18:47:08 45° WNW 18:52:27 10° N visible
22 Jan 6.7 20:31:59 10° NW 20:32:09 10° NW 20:32:19 10° NW visible
23 Jan 4.9 18:36:23 10° SW 18:41:39 43° WNW 18:46:56 10° N visible
24 Jan 4.9 18:30:56 10° SW 18:36:09 42° WNW 18:41:25 10° N visible
25 Jan 5.0 18:25:29 10° SW 18:30:40 40° WNW 18:35:54 10° N visible
